2024-075A (59557 NORAD) Tracking and Keplerian Element Data

This shows tracking and keplerian element data for the satellite.

Feedback or suggestion? Click here.




ElementValue
Catalog59557
Name2024-075A
Epoch Orbit728
Epoch Day159.71814977
Epoch Year2024
RAAN240.1825
Inclination35.0002
Eccentricity0.000588
Argument of Perigee346.2484
Mean Anonmoly152.6266
Mean Motion15.22788219
Decay Rate0.00064184
L11 59557U 24075A 24159.71814977 .00064184 00000+0 26583-2 0 9992
L22 59557 35.0002 240.1825 0005880 346.2484 152.6266 15.22788219 7287



Live tracking and technical data element details for 2024-075A (NORAD 59557). 2024-075A can be tracked NOW for your location showing map with azimuth and elevation plus other details from your city location.







IsCatalogInMostPopularTable: catalog: 59557, numindb: 12
Update: records affected: 1



GetName: 59557 2024-075A

Hit Count: updated at: Fri, 14 Jun 2024 18:17:54 GMT